User: anonymous   Login
Location: Unspecified
(0.0000°N, 0.0000°E)
Time: 07:06:56
(UTC+00:00)
Language:

Meteor 2-10 - Orbit

View from above orbital plane
View from above orbital plane
View from above satellite
View from above satellite

Ground track
Ground track

The orbit data is extracted from the following two-line orbital elements,

1 14452U 83109A   18015.94341127 +.00000060 +00000-0 +18508-4 0  9995
2 14452 081.1602 221.5641 0091914 123.5329 237.4673 14.26449205779075
Epoch (UTC): 15 January 2018 22:38:30
Eccentricity: 0.0091914
inclination: 81.1602°
perigee height: 737 km
apogee height: 869 km
right ascension of ascending node: 221.5641°
argument of perigee: 123.5329°
revolutions per day: 14.26449205
mean anomaly at epoch: 237.4673°
orbit number at epoch: 77907

The dashed part of the orbit path shows where the satellite is in the earth's shadow,  

DLR